QPF
0.06 0.07 0.06 0.06 0.05 0.05 0.07 0.09 0.11 0.11 0.11 0.10 0.08 0.06 0.06 0.06 0.06 0.05 0.05 0.05 0.04 0.04 0.04 0.05 0.05 0.06 0.06 0.07 0.07 0.07 0.10 0.13 0.14 0.13 0.08 0.06 0.06 0.06
0.07 0.07 0.06 0.07 0.06 0.04 0.05 0.07 0.09 0.10 0.10 0.08 0.07 0.06 0.06 0.06 0.07 0.04 0.04 0.04 0.03 0.03 0.03 0.04 0.04 0.05 0.05 0.05 0.06 0.05 0.05 0.07 0.11 0.13 0.11 0.07 0.04 0.04
0.06 0.06 0.05 0.07 0.07 0.05 0.05 0.07 0.07 0.09 0.10 0.08 0.08 0.08 0.08 0.07 0.08 0.08 0.08 0.06 0.04 0.04 0.04 0.04 0.04 0.04 0.05 0.05 0.04 0.04 0.04 0.07 0.09 0.11 0.13 0.11 0.07 0.04
0.04 0.05 0.05 0.06 0.07 0.06 0.07 0.08 0.09 0.09 0.09 0.11 0.11 0.11 0.13 0.11 0.10 0.09 0.09 0.08 0.07 0.08 0.07 0.07 0.06 0.05 0.05 0.05 0.05 0.05 0.05 0.06 0.07 0.09 0.11 0.13 0.11 0.07
0.03 0.04 0.05 0.05 0.05 0.06 0.05 0.05 0.08 0.08 0.08 0.09 0.10 0.11 0.10 0.09 0.09 0.08 0.07 0.08 0.08 0.08 0.09 0.08 0.07 0.06 0.05 0.05 0.07 0.07 0.06 0.05 0.05 0.06 0.09 0.11 0.12 0.09
0.03 0.03 0.03 0.03 0.04 0.05 0.05 0.05 0.05 0.06 0.05 0.04 0.04 0.06 0.06 0.06 0.06 0.07 0.07 0.07 0.06 0.06 0.07 0.06 0.05 0.04 0.03 0.03 0.03 0.04 0.05 0.06 0.06 0.07 0.07 0.09 0.11 0.12
0.02 0.02 0.02 0.01 0.02 0.02 0.02 0.03 0.03 0.05 0.06 0.04 0.04 0.04 0.05 0.05 0.05 0.06 0.05 0.04 0.04 0.04 0.05 0.05 0.04 0.03 0.03 0.02 0.02 0.03 0.03 0.04 0.05 0.06 0.07 0.07 0.08 0.10
0.02 0.02 0.01 0.02 0.02 0.02 0.01 0.01 0.02 0.03 0.03 0.03 0.03 0.03 0.04 0.05 0.06 0.05 0.04 0.04 0.04 0.04 0.04 0.04 0.03 0.03 0.03 0.03 0.03 0.04 0.04 0.04 0.05 0.05 0.06 0.07 0.08 0.09
0.02 0.02 0.02 0.02 0.02 0.02 0.01 0.01 0.01 0.01 0.02 0.02 0.03 0.04 0.04 0.04 0.03 0.02 0.03 0.03 0.04 0.03 0.04 0.04 0.04 0.03 0.02 0.02 0.02 0.03 0.03 0.04 0.05 0.06 0.06 0.06 0.07 0.08
0.01 0.01 0.02 0.02 0.01 0.01 0.01 0.01 0.01 0.01 0.01 0.02 0.02 0.03 0.02 0.02 0.03 0.02 0.02 0.02 0.02 0.03 0.04 0.03 0.04 0.03 0.02 0.02 0.02 0.02 0.02 0.01 0.02 0.02 0.03 0.04 0.05 0.06
0.01 0.01 0.01 0.01 0.01 0.01 0.02 0.01 0.01 0.01 0.01 0.01 0.01 0.01 0.01 0.01 0.02 0.03 0.02 0.02 0.02 0.02 0.03 0.03 0.03 0.04 0.04 0.03 0.02 0.02 0.02 0.02 0.02 0.02 0.02 0.02 0.02 0.02
0.01 0.01 0.01 0.01 0.01 0.01 0.01 0.02 0.01 0.01 0.01 0.01 0.01 0.00 0.00 0.00 0.01 0.02 0.03 0.03 0.02 0.02 0.03 0.03 0.03 0.04 0.04 0.04 0.04 0.02 0.02 0.02 0.02 0.02 0.01 0.01 0.01 0.02
0.01 0.00 0.01 0.01 0.00 0.00 0.01 0.01 0.01 0.02 0.01 0.01 0.01 0.01 0.01 0.02 0.02 0.03 0.04 0.04 0.05 0.04 0.04 0.04 0.05 0.05 0.05 0.04 0.04 0.04 0.03 0.03 0.02 0.01 0.01 0.01 0.01 0.01
0.01 0.01 0.00 0.00 0.00 0.01 0.01 0.02 0.02 0.02 0.03 0.02 0.03 0.04 0.05 0.05 0.06 0.06 0.06 0.07 0.08 0.06 0.06 0.06 0.06 0.06 0.06 0.05 0.04 0.04 0.03 0.03 0.03 0.03 0.03 0.02 0.02 0.02
0.01 0.01 0.00 0.01 0.01 0.01 0.01 0.01 0.01 0.02 0.02 0.02 0.03 0.03 0.03 0.04 0.05 0.06 0.05 0.07 0.10 0.08 0.07 0.07 0.07 0.06 0.06 0.05 0.04 0.03 0.02 0.02 0.02 0.03 0.03 0.03 0.03 0.03
0.01 0.01 0.01 0.01 0.01 0.01 0.01 0.01 0.01 0.02 0.02 0.02 0.04 0.04 0.04 0.05 0.05 0.05 0.04 0.04 0.06 0.06 0.06 0.06 0.05 0.05 0.06 0.06 0.05 0.03 0.02 0.02 0.02 0.02 0.03 0.04 0.04 0.04
0.01 0.01 0.01 0.01 0.01 0.02 0.02 0.02 0.02 0.02 0.02 0.02 0.02 0.04 0.05 0.04 0.03 0.03 0.02 0.02 0.02 0.03 0.04 0.05 0.04 0.04 0.04 0.04 0.04 0.03 0.03 0.03 0.03 0.03 0.04 0.04 0.04 0.03
0.01 0.01 0.01 0.01 0.01 0.02 0.03 0.03 0.02 0.01 0.01 0.01 0.02 0.02 0.03 0.03 0.03 0.03 0.02 0.02 0.01 0.01 0.02 0.02 0.03 0.04 0.04 0.04 0.04 0.04 0.04 0.03 0.03 0.04 0.05 0.05 0.04 0.03
0.02 0.02 0.02 0.02 0.03 0.04 0.04 0.03 0.03 0.02 0.02 0.02 0.02 0.02 0.02 0.02 0.02 0.03 0.03 0.02 0.02 0.01 0.01 0.01 0.02 0.02 0.03 0.03 0.03 0.02 0.03 0.03 0.03 0.04 0.04 0.04 0.03 0.03
0.03 0.03 0.04 0.04 0.04 0.05 0.05 0.06 0.05 0.03 0.03 0.03 0.02 0.02 0.03 0.03 0.02 0.03 0.03 0.02 0.02 0.01 0.01 0.01 0.01 0.01 0.02 0.03 0.03 0.02 0.02 0.02 0.03 0.04 0.04 0.04 0.04 0.04
0.03 0.03 0.04 0.04 0.05 0.05 0.06 0.06 0.05 0.04 0.04 0.03 0.04 0.03 0.03 0.04 0.03 0.03 0.02 0.02 0.01 0.01 0.02 0.02 0.01 0.01 0.02 0.03 0.03 0.03 0.02 0.02 0.02 0.03 0.03 0.04 0.04 0.04
0.03 0.03 0.04 0.05 0.06 0.06 0.05 0.05 0.05 0.04 0.04 0.04 0.04 0.05 0.04 0.04 0.04 0.03 0.03 0.03 0.02 0.01 0.01 0.01 0.01 0.02 0.02 0.03 0.04 0.03 0.03 0.02 0.02 0.02 0.03 0.03 0.03 0.03
0.03 0.04 0.05 0.06 0.07 0.06 0.05 0.06 0.06 0.06 0.06 0.06 0.05 0.05 0.04 0.04 0.04 0.03 0.03 0.03 0.03 0.02 0.02 0.02 0.02 0.03 0.03 0.03 0.03 0.03 0.02 0.02 0.03 0.03 0.02 0.02 0.02 0.02
MSLP
1013.96 1014.16 1014.38 1014.59 1014.77 1014.87 1014.89 1014.81 1014.65 1014.44 1014.22 1014.02 1013.87 1013.79 1013.79 1013.83 1013.92 1014.00 1014.08 1014.12 1014.13 1014.11 1014.07 1014.02 1013.99 1013.98 1013.99 1014.03 1014.09 1014.15 1014.22 1014.27 1014.32 1014.35 1014.37 1014.39 1014.39 1014.38
1013.53 1013.70 1013.91 1014.13 1014.34 1014.51 1014.62 1014.66 1014.63 1014.55 1014.45 1014.34 1014.25 1014.19 1014.16 1014.16 1014.16 1014.15 1014.13 1014.07 1014.00 1013.90 1013.81 1013.74 1013.69 1013.68 1013.70 1013.76 1013.83 1013.91 1013.99 1014.06 1014.11 1014.14 1014.16 1014.16 1014.14 1014.12
1013.25 1013.41 1013.60 1013.83 1014.06 1014.27 1014.45 1014.58 1014.65 1014.68 1014.68 1014.65 1014.62 1014.58 1014.54 1014.48 1014.42 1014.33 1014.21 1014.06 1013.90 1013.73 1013.58 1013.46 1013.38 1013.35 1013.37 1013.42 1013.50 1013.59 1013.68 1013.75 1013.81 1013.84 1013.85 1013.85 1013.83 1013.80
1013.13 1013.29 1013.49 1013.71 1013.95 1014.19 1014.41 1014.59 1014.74 1014.85 1014.92 1014.95 1014.96 1014.95 1014.90 1014.82 1014.70 1014.55 1014.35 1014.13 1013.89 1013.65 1013.44 1013.27 1013.15 1013.08 1013.07 1013.10 1013.16 1013.24 1013.31 1013.38 1013.43 1013.46 1013.48 1013.47 1013.46 1013.44
1013.15 1013.33 1013.54 1013.76 1014.01 1014.26 1014.49 1014.71 1014.89 1015.05 1015.16 1015.25 1015.29 1015.30 1015.25 1015.16 1015.02 1014.82 1014.58 1014.30 1014.01 1013.72 1013.45 1013.22 1013.05 1012.93 1012.87 1012.85 1012.86 1012.90 1012.94 1012.98 1013.01 1013.03 1013.04 1013.05 1013.04 1013.03
1013.22 1013.45 1013.68 1013.93 1014.18 1014.43 1014.67 1014.89 1015.09 1015.26 1015.40 1015.51 1015.58 1015.60 1015.57 1015.49 1015.34 1015.13 1014.88 1014.58 1014.25 1013.93 1013.62 1013.34 1013.11 1012.92 1012.79 1012.70 1012.64 1012.61 1012.60 1012.59 1012.58 1012.58 1012.58 1012.58 1012.59 1012.59
1013.28 1013.57 1013.85 1014.12 1014.39 1014.64 1014.87 1015.09 1015.28 1015.46 1015.60 1015.72 1015.80 1015.84 1015.83 1015.76 1015.63 1015.44 1015.19 1014.90 1014.58 1014.24 1013.90 1013.59 1013.30 1013.05 1012.84 1012.66 1012.52 1012.40 1012.30 1012.23 1012.17 1012.12 1012.10 1012.09 1012.10 1012.12
1013.24 1013.60 1013.94 1014.26 1014.55 1014.81 1015.04 1015.25 1015.43 1015.59 1015.73 1015.84 1015.92 1015.97 1015.98 1015.94 1015.84 1015.68 1015.47 1015.21 1014.90 1014.57 1014.23 1013.89 1013.56 1013.25 1012.96 1012.69 1012.45 1012.24 1012.05 1011.89 1011.76 1011.66 1011.60 1011.57 1011.57 1011.61
1013.06 1013.50 1013.90 1014.27 1014.60 1014.88 1015.12 1015.32 1015.49 1015.63 1015.75 1015.85 1015.93 1015.98 1016.00 1015.98 1015.91 1015.79 1015.63 1015.41 1015.14 1014.84 1014.51 1014.16 1013.80 1013.45 1013.09 1012.74 1012.41 1012.10 1011.82 1011.57 1011.36 1011.19 1011.08 1011.02 1011.01 1011.04
1012.73 1013.24 1013.71 1014.14 1014.50 1014.81 1015.07 1015.27 1015.43 1015.56 1015.66 1015.74 1015.80 1015.84 1015.86 1015.85 1015.81 1015.73 1015.60 1015.43 1015.21 1014.95 1014.64 1014.31 1013.94 1013.56 1013.16 1012.75 1012.35 1011.96 1011.58 1011.25 1010.96 1010.72 1010.55 1010.45 1010.41 1010.43
1012.30 1012.87 1013.40 1013.87 1014.29 1014.63 1014.90 1015.11 1015.27 1015.38 1015.46 1015.51 1015.54 1015.56 1015.57 1015.56 1015.53 1015.47 1015.38 1015.24 1015.07 1014.85 1014.58 1014.27 1013.92 1013.54 1013.12 1012.68 1012.23 1011.78 1011.34 1010.93 1010.56 1010.26 1010.03 1009.88 1009.80 1009.80
1011.86 1012.46 1013.03 1013.54 1013.99 1014.36 1014.65 1014.87 1015.02 1015.11 1015.16 1015.18 1015.18 1015.16 1015.14 1015.12 1015.08 1015.03 1014.95 1014.85 1014.71 1014.53 1014.31 1014.04 1013.72 1013.36 1012.96 1012.51 1012.04 1011.56 1011.08 1010.62 1010.20 1009.83 1009.54 1009.33 1009.21 1009.17
1011.50 1012.10 1012.68 1013.20 1013.67 1014.05 1014.35 1014.56 1014.70 1014.77 1014.79 1014.78 1014.74 1014.68 1014.63 1014.57 1014.51 1014.45 1014.38 1014.30 1014.19 1014.05 1013.87 1013.65 1013.38 1013.06 1012.69 1012.27 1011.81 1011.32 1010.83 1010.34 1009.88 1009.46 1009.12 1008.85 1008.68 1008.60
1011.27 1011.85 1012.41 1012.92 1013.37 1013.74 1014.03 1014.23 1014.35 1014.39 1014.38 1014.33 1014.25 1014.15 1014.06 1013.97 1013.89 1013.81 1013.74 1013.66 1013.57 1013.46 1013.32 1013.15 1012.93 1012.66 1012.35 1011.97 1011.55 1011.09 1010.60 1010.11 1009.63 1009.18 1008.79 1008.48 1008.26 1008.13
1011.22 1011.75 1012.25 1012.72 1013.14 1013.47 1013.73 1013.89 1013.98 1013.99 1013.94 1013.86 1013.74 1013.61 1013.49 1013.37 1013.26 1013.17 1013.09 1013.01 1012.93 1012.85 1012.74 1012.61 1012.45 1012.24 1011.98 1011.67 1011.30 1010.88 1010.43 1009.95 1009.47 1009.00 1008.58 1008.23 1007.96 1007.79
1011.33 1011.78 1012.21 1012.61 1012.96 1013.23 1013.43 1013.55 1013.59 1013.57 1013.49 1013.37 1013.23 1013.08 1012.94 1012.80 1012.69 1012.58 1012.50 1012.42 1012.35 1012.28 1012.21 1012.11 1011.99 1011.83 1011.63 1011.38 1011.07 1010.71 1010.30 1009.85 1009.38 1008.92 1008.49 1008.10 1007.80 1007.58
1011.54 1011.90 1012.24 1012.54 1012.80 1013.00 1013.12 1013.18 1013.17 1013.11 1013.01 1012.87 1012.73 1012.58 1012.44 1012.30 1012.19 1012.09 1012.01 1011.94 1011.87 1011.81 1011.75 1011.68 1011.58 1011.47 1011.31 1011.11 1010.86 1010.55 1010.20 1009.79 1009.36 1008.91 1008.48 1008.08 1007.75 1007.51
1011.76 1012.02 1012.25 1012.46 1012.62 1012.72 1012.77 1012.77 1012.71 1012.62 1012.50 1012.36 1012.23 1012.10 1011.98 1011.88 1011.79 1011.70 1011.63 1011.57 1011.51 1011.45 1011.38 1011.32 1011.24 1011.14 1011.02 1010.86 1010.66 1010.40 1010.10 1009.75 1009.36 1008.94 1008.53 1008.14 1007.81 1007.54
1011.88 1012.04 1012.18 1012.29 1012.36 1012.37 1012.34 1012.28 1012.18 1012.07 1011.95 1011.83 1011.73 1011.64 1011.56 1011.50 1011.45 1011.40 1011.34 1011.29 1011.23 1011.16 1011.09 1011.01 1010.93 1010.84 1010.73 1010.60 1010.44 1010.23 1009.98 1009.69 1009.35 1008.98 1008.61 1008.25 1007.92 1007.66
1011.82 1011.91 1011.97 1011.99 1011.97 1011.91 1011.82 1011.71 1011.59 1011.47 1011.36 1011.28 1011.22 1011.18 1011.16 1011.15 1011.14 1011.13 1011.10 1011.05 1010.99 1010.91 1010.82 1010.73 1010.63 1010.53 1010.43 1010.31 1010.18 1010.02 1009.82 1009.59 1009.32 1009.01 1008.69 1008.38 1008.09 1007.85
1011.56 1011.58 1011.58 1011.53 1011.45 1011.34 1011.21 1011.07 1010.94 1010.83 1010.75 1010.70 1010.69 1010.71 1010.75 1010.79 1010.83 1010.85 1010.84 1010.80 1010.73 1010.64 1010.53 1010.41 1010.29 1010.18 1010.08 1009.98 1009.88 1009.76 1009.62 1009.46 1009.26 1009.03 1008.78 1008.52 1008.29 1008.09
1011.08 1011.07 1011.02 1010.93 1010.81 1010.67 1010.53 1010.38 1010.26 1010.17 1010.13 1010.12 1010.16 1010.23 1010.32 1010.41 1010.48 1010.52 1010.53 1010.49 1010.41 1010.30 1010.17 1010.03 1009.90 1009.78 1009.68 1009.59 1009.52 1009.46 1009.38 1009.29 1009.17 1009.03 1008.86 1008.69 1008.52 1008.38
1010.44 1010.41 1010.34 1010.24 1010.12 1009.98 1009.84 1009.71 1009.61 1009.55 1009.54 1009.57 1009.65 1009.75 1009.87 1009.99 1010.08 1010.13 1010.14 1010.10 1010.01 1009.88 1009.73 1009.58 1009.43 1009.31 1009.22 1009.16 1009.13 1009.12 1009.11 1009.10 1009.08 1009.02 1008.95 1008.87 1008.78 1008.71
Thickness
5746 5746 5744 5744 5744 5742 5739 5735 5726 5719 5718 5722 5722 5723 5722 5720 5718 5715 5713 5712 5710 5709 5707 5706 5704 5702 5700 5698 5697 5695 5693 5692 5691 5689 5688 5687 5686 5684
5744 5742 5741 5741 5739 5738 5736 5733 5729 5722 5716 5718 5717 5717 5716 5714 5712 5710 5708 5706 5704 5702 5701 5699 5697 5695 5693 5691 5690 5688 5687 5686 5684 5682 5681 5680 5679 5678
5741 5739 5737 5736 5734 5733 5732 5730 5726 5722 5715 5714 5714 5712 5710 5707 5705 5704 5702 5700 5697 5695 5694 5692 5690 5688 5686 5684 5683 5681 5680 5678 5677 5675 5674 5673 5672 5671
5736 5734 5732 5732 5729 5727 5726 5724 5721 5719 5713 5707 5706 5705 5703 5701 5699 5697 5696 5693 5691 5688 5686 5684 5683 5681 5679 5678 5676 5674 5673 5671 5669 5668 5667 5665 5664 5663
5732 5729 5727 5725 5722 5722 5720 5718 5716 5715 5710 5705 5701 5699 5697 5695 5692 5691 5689 5687 5685 5682 5679 5677 5675 5673 5672 5670 5669 5667 5665 5664 5662 5661 5659 5657 5656 5655
5728 5725 5722 5720 5717 5716 5714 5712 5710 5707 5704 5700 5696 5693 5690 5688 5685 5682 5680 5680 5679 5677 5673 5671 5669 5666 5664 5662 5661 5659 5658 5656 5655 5653 5651 5650 5648 5646
5722 5720 5717 5714 5712 5710 5708 5705 5703 5699 5696 5693 5690 5687 5683 5680 5678 5677 5674 5673 5673 5671 5667 5665 5662 5659 5657 5655 5653 5652 5650 5649 5647 5645 5643 5641 5639 5637
5716 5714 5712 5709 5707 5704 5701 5699 5697 5693 5690 5687 5684 5681 5678 5676 5674 5672 5669 5666 5663 5665 5663 5660 5659 5655 5652 5649 5647 5645 5643 5641 5639 5637 5635 5633 5631 5628
5712 5710 5709 5706 5702 5699 5696 5693 5691 5688 5686 5683 5679 5677 5674 5672 5669 5667 5664 5662 5660 5660 5658 5654 5653 5650 5648 5645 5642 5640 5637 5634 5632 5630 5627 5625 5623 5621
5707 5705 5702 5698 5696 5692 5690 5687 5685 5682 5680 5678 5676 5674 5672 5669 5667 5664 5661 5659 5658 5657 5655 5648 5647 5645 5643 5639 5637 5634 5631 5628 5625 5622 5619 5617 5615 5613
5701 5699 5696 5692 5689 5686 5683 5681 5678 5676 5674 5672 5670 5668 5667 5664 5662 5659 5656 5652 5649 5649 5649 5645 5642 5639 5637 5634 5630 5627 5624 5621 5618 5615 5612 5609 5607 5604
5695 5692 5689 5686 5682 5680 5677 5674 5671 5669 5668 5665 5663 5662 5661 5659 5657 5654 5651 5647 5644 5642 5643 5640 5636 5634 5629 5628 5624 5620 5617 5614 5611 5608 5605 5602 5599 5595
5689 5686 5682 5678 5675 5673 5670 5668 5665 5663 5661 5659 5658 5656 5655 5653 5651 5649 5647 5644 5640 5638 5638 5635 5631 5629 5625 5621 5619 5615 5612 5608 5604 5601 5597 5595 5592 5588
5682 5680 5676 5671 5668 5665 5663 5661 5659 5656 5655 5653 5651 5650 5648 5646 5645 5644 5642 5640 5638 5635 5634 5631 5626 5623 5619 5615 5612 5610 5607 5604 5600 5596 5591 5588 5584 5581
5675 5673 5669 5665 5661 5658 5656 5654 5651 5649 5648 5646 5645 5645 5644 5642 5640 5638 5636 5634 5632 5631 5628 5625 5622 5619 5615 5611 5608 5605 5601 5598 5595 5591 5586 5582 5578 5575
5666 5664 5661 5658 5655 5653 5650 5647 5645 5644 5643 5642 5641 5640 5639 5637 5634 5632 5629 5627 5624 5622 5622 5619 5617 5614 5609 5607 5604 5599 5597 5593 5589 5586 5581 5578 5574 5570
5659 5656 5654 5651 5649 5648 5646 5644 5642 5640 5638 5637 5636 5634 5633 5631 5629 5627 5624 5621 5618 5616 5614 5612 5610 5608 5605 5601 5597 5595 5591 5588 5585 5581 5576 5572 5569 5565
5652 5650 5649 5648 5646 5645 5642 5640 5638 5636 5636 5634 5631 5629 5627 5625 5623 5622 5619 5616 5612 5610 5608 5606 5603 5599 5596 5594 5592 5589 5586 5583 5580 5576 5572 5566 5562 5559
5646 5646 5644 5643 5642 5640 5638 5636 5634 5633 5631 5629 5626 5624 5622 5620 5618 5615 5612 5610 5607 5605 5603 5600 5597 5592 5587 5585 5585 5584 5580 5577 5574 5570 5566 5562 5557 5554
5642 5641 5640 5638 5637 5635 5633 5631 5629 5628 5626 5623 5621 5618 5616 5613 5611 5608 5606 5604 5602 5599 5597 5595 5592 5589 5585 5582 5580 5578 5576 5572 5567 5563 5560 5557 5552 5549
5637 5636 5635 5633 5631 5629 5628 5626 5623 5621 5618 5616 5614 5611 5609 5607 5605 5603 5601 5597 5595 5594 5591 5590 5589 5587 5584 5580 5576 5573 5570 5567 5565 5560 5555 5551 5546 5543
5631 5629 5628 5626 5624 5623 5621 5618 5616 5614 5611 5609 5607 5605 5603 5602 5600 5597 5595 5593 5591 5589 5587 5586 5584 5581 5577 5573 5570 5568 5565 5562 5558 5555 5551 5548 5542 5538
5624 5623 5621 5618 5616 5615 5613 5611 5609 5608 5605 5603 5601 5599 5597 5595 5594 5592 5590 5588 5586 5584 5581 5579 5578 5575 5572 5569 5566 5563 5561 5557 5553 5547 5544 5542 5539 5535